Погода в Завидном

Россия / Рязанская область     53°57′44″N   42°03′40″E
темп.,
°C
ветер,
м/с
пор.,
м/с
влажн.,
%
обл.,
%
осадки,
мм/ч
давл.,
гПа
погр.,
м
13 мая, чт
чт1300:00+11ю2395100 0.0 1021124
03:00+9юв22956 0.0 102155
06:00+10в239596 0.0 1021110
09:00+15в347260 0.0 1019495
12:00+17вюв458691 0.4 1017599
15:00+19ю358073 1.5 1016769
18:00+18ю24850 1.3 1016339
21:00+14ю229299 1.3 101711
14 мая, пт
пт1400:00+13ююв22950 0.0 101824
03:00+12юв2295100 0.0 101832
06:00+13юв2392100 0.0 101987
09:00+19юв35725 0.0 1018397
12:00+23ююв455287 0.0 10171391
15:00+25юв46546 0.0 10161538
18:00+22юв3772100 0.0 1015197
21:00+18юв31094100 2.6 1015213
15 мая, сб
сб1500:00+17юв389434 0.4 1014156
03:00+15юв39935 0.4 1013153
06:00+16ююв4128762 0.0 1013323
09:00+21ююв596364 0.0 1012567
12:00+24ююз695727 0.0 10131264
15:00+24ююз36615 0.2 10131386
18:00+21з147383 0.7 1013195
21:00+17ююв2383100 0.8 101339
16 мая, вс
вс1600:00+16ююз349529 0.0 101383
03:00+15ююз239615 0.0 101362
06:00+16юз24919 0.0 1014123
09:00+20юз3569100 0.0 1014566
12:00+22зюз355699 0.0 10151207
15:00+23юз355311 0.0 10141460
18:00+22з23687 0.0 1014162
21:00+19с2374100 0.0 101545
17 мая, пн
пн1700:00+16св358894 0.0 101587
03:00+14всв36946 0.0 1016123
06:00+16всв27886 0.0 1016190
09:00+23в46635 0.0 1015577
12:00+25юв455269 0.0 1014619
15:00+28ююв574027 0.0 10141618
18:00+25юв3560100 0.0 101396
21:00+19вюв3874100 0.0 1014123